When you browse on this site, cookies collect data to enhance your experience and personalize the content and advertising you see.
Visit our Privacy Policy to learn more. By continuing to use the site, you agree to this use of cookies and data.
  • In Switzerland
  • List of Countries
  • For 7 days
  • Water Temperature
  • Weather Map
  • Weather Widgets
  • user-avatar
    Login

    Hourly Weather Sankt Gallen

    Today, 26 May, Tuesday

    Time Temperature Precipitation Wind Pressure Humidity
    00:00 +9°C° 0 mm 1 mps 721 mmHg 90%
    01:00 +9°C° 0 mm 1 mps 721 mmHg 91%
    02:00 +8°C° 0 mm 1 mps 721 mmHg 92%
    03:00 +8°C° 0 mm 1 mps 721 mmHg 92%
    04:00 +8°C° 0 mm 1 mps 721 mmHg 93%
    05:00 +9°C° 0 mm 1 mps 721 mmHg 89%
    06:00 +10°C° 0 mm 1 mps 721 mmHg 85%
    07:00 +12°C° 0 mm 1 mps 721 mmHg 81%
    08:00 +13°C° 0 mm 1 mps 721 mmHg 74%
    09:00 +15°C° 0 mm 2 mps 721 mmHg 66%
    10:00 +16°C° 0 mm 2 mps 721 mmHg 59%
    11:00 +17°C° 0 mm 3 mps 721 mmHg 56%
    12:00 +18°C° 0 mm 3 mps 721 mmHg 54%
    13:00 +19°C° 0 mm 4 mps 721 mmHg 52%
    14:00 +18°C° 0 mm 4 mps 721 mmHg 54%
    15:00 +18°C° 0 mm 4 mps 720 mmHg 56%
    16:00 +18°C° 0 mm 4 mps 720 mmHg 58%
    17:00 +17°C° 0 mm 4 mps 720 mmHg 63%
    18:00 +16°C° 0 mm 3 mps 720 mmHg 69%
    19:00 +14°C° 0 mm 3 mps 721 mmHg 75%
    20:00 +12°C° 0 mm 3 mps 721 mmHg 79%
    21:00 +12°C° 0 mm 2 mps 721 mmHg 84%
    22:00 +9°C° 0 mm 2 mps 722 mmHg 88%
    23:00 +8°C° 0 mm 2 mps 721 mmHg 89%

    Tomorrow, 27 May, Wednesday

    Time Temperature Precipitation Wind Pressure Humidity
    00:00 +8°C° 0 mm 2 mps 721 mmHg 90%
    01:00 +8°C° 0 mm 1 mps 721 mmHg 91%
    02:00 +8°C° 0 mm 1 mps 721 mmHg 91%
    03:00 +7°C° 0 mm 1 mps 721 mmHg 91%
    04:00 +7°C° 0 mm 1 mps 720 mmHg 91%
    05:00 +8°C° 0 mm 1 mps 721 mmHg 86%
    06:00 +10°C° 0 mm 1 mps 721 mmHg 81%
    07:00 +11°C° 0 mm 1 mps 721 mmHg 76%
    08:00 +13°C° 0 mm 1 mps 721 mmHg 69%
    09:00 +15°C° 0 mm 2 mps 721 mmHg 61%
    10:00 +17°C° 0 mm 2 mps 721 mmHg 54%
    11:00 +18°C° 0 mm 3 mps 721 mmHg 51%
    12:00 +19°C° 0 mm 3 mps 721 mmHg 47%
    13:00 +20°C° 0 mm 3 mps 720 mmHg 44%
    14:00 +20°C° 0 mm 4 mps 720 mmHg 46%
    15:00 +20°C° 0 mm 4 mps 720 mmHg 48%
    16:00 +20°C° 0 mm 4 mps 720 mmHg 50%
    17:00 +19°C° 0 mm 3 mps 720 mmHg 58%
    18:00 +18°C° 0 mm 3 mps 720 mmHg 65%
    19:00 +16°C° 0 mm 2 mps 720 mmHg 73%
    20:00 +14°C° 0 mm 2 mps 720 mmHg 78%
    21:00 +13°C° 0 mm 1 mps 720 mmHg 83%
    22:00 +11°C° 0 mm 1 mps 720 mmHg 87%
    23:00 +10°C° 0 mm 1 mps 720 mmHg 88%

    Day after tomorrow, 28 May, Thursday

    Time Temperature Precipitation Wind Pressure Humidity
    00:00 +10°C° 0 mm 1 mps 720 mmHg 89%
    01:00 +9°C° 0 mm 1 mps 719 mmHg 91%
    02:00 +9°C° 0 mm 1 mps 719 mmHg 91%
    03:00 +7°C° 0 mm 0 mps 719 mmHg 91%
    04:00 +7°C° 0 mm 0 mps 719 mmHg 92%
    05:00 +9°C° 0 mm 0 mps 719 mmHg 87%
    06:00 +10°C° 0 mm 0 mps 719 mmHg 83%
    07:00 +12°C° 0 mm 0 mps 719 mmHg 78%
    08:00 +14°C° 0 mm 1 mps 719 mmHg 72%
    09:00 +16°C° 0 mm 1 mps 719 mmHg 66%
    10:00 +17°C° 0 mm 2 mps 719 mmHg 59%
    11:00 +18°C° 0.1 mm 3 mps 719 mmHg 61%
    12:00 +18°C° 0.1 mm 3 mps 718 mmHg 62%
    13:00 +19°C° 0.1 mm 4 mps 718 mmHg 63%
    14:00 +19°C° 0.2 mm 4 mps 718 mmHg 63%
    15:00 +19°C° 0.2 mm 4 mps 717 mmHg 62%
    16:00 +19°C° 0.2 mm 4 mps 717 mmHg 62%
    17:00 +18°C° 0.1 mm 3 mps 717 mmHg 68%
    18:00 +17°C° 0.1 mm 3 mps 717 mmHg 73%
    19:00 +16°C° 0.1 mm 3 mps 717 mmHg 78%
    20:00 +14°C° 0 mm 2 mps 717 mmHg 80%
    21:00 +12°C° 0 mm 2 mps 717 mmHg 82%
    22:00 +10°C° 0 mm 2 mps 717 mmHg 84%
    23:00 +9°C° 0 mm 2 mps 717 mmHg 85%

    29 May, Friday

    Time Temperature Precipitation Wind Pressure Humidity
    00:00 +9°C° 0 mm 1 mps 717 mmHg 87%
    01:00 +9°C° 0 mm 1 mps 717 mmHg 89%
    02:00 +8°C° 0 mm 1 mps 717 mmHg 89%
    03:00 +8°C° 0 mm 1 mps 716 mmHg 90%
    04:00 +7°C° 0 mm 1 mps 716 mmHg 90%
    05:00 +9°C° 0 mm 1 mps 716 mmHg 87%
    06:00 +10°C° 0 mm 1 mps 716 mmHg 83%
    07:00 +11°C° 0 mm 1 mps 716 mmHg 80%
    08:00 +13°C° 0 mm 1 mps 716 mmHg 73%
    09:00 +15°C° 0 mm 2 mps 716 mmHg 65%
    10:00 +17°C° 0 mm 2 mps 716 mmHg 58%
    11:00 +18°C° 0 mm 3 mps 715 mmHg 54%
    12:00 +19°C° 0 mm 3 mps 715 mmHg 50%
    13:00 +20°C° 0 mm 4 mps 715 mmHg 47%
    14:00 +20°C° 0 mm 4 mps 714 mmHg 48%
    15:00 +19°C° 0 mm 4 mps 714 mmHg 50%
    16:00 +19°C° 0 mm 5 mps 714 mmHg 51%
    17:00 +18°C° 0 mm 4 mps 714 mmHg 57%
    18:00 +17°C° 0 mm 4 mps 714 mmHg 63%
    19:00 +16°C° 0 mm 3 mps 714 mmHg 69%
    20:00 +13°C° 0 mm 3 mps 714 mmHg 75%
    21:00 +12°C° 0 mm 2 mps 714 mmHg 80%
    22:00 +9°C° 0 mm 2 mps 714 mmHg 85%
    23:00 +9°C° 0 mm 2 mps 714 mmHg 86%

    30 May, Saturday

    Time Temperature Precipitation Wind Pressure Humidity
    00:00 +9°C° 0 mm 1 mps 714 mmHg 87%
    01:00 +9°C° 0 mm 1 mps 713 mmHg 88%
    02:00 +8°C° 0 mm 1 mps 713 mmHg 89%
    03:00 +8°C° 0 mm 1 mps 713 mmHg 90%
    04:00 +7°C° 0 mm 1 mps 713 mmHg 91%
    05:00 +9°C° 0 mm 1 mps 713 mmHg 86%
    06:00 +10°C° 0 mm 1 mps 713 mmHg 81%
    07:00 +11°C° 0 mm 1 mps 714 mmHg 77%
    08:00 +13°C° 0 mm 2 mps 714 mmHg 70%
    09:00 +15°C° 0 mm 2 mps 714 mmHg 64%
    10:00 +17°C° 0 mm 2 mps 714 mmHg 57%
    11:00 +18°C° 0 mm 3 mps 714 mmHg 53%
    12:00 +19°C° 0 mm 4 mps 713 mmHg 49%
    13:00 +20°C° 0 mm 4 mps 713 mmHg 45%
    14:00 +19°C° 0 mm 4 mps 713 mmHg 47%
    15:00 +19°C° 0 mm 4 mps 713 mmHg 48%
    16:00 +19°C° 0 mm 5 mps 713 mmHg 49%
    17:00 +18°C° 0 mm 4 mps 713 mmHg 56%
    18:00 +17°C° 0 mm 3 mps 713 mmHg 62%
    19:00 +14°C° 0 mm 3 mps 713 mmHg 69%
    20:00 +14°C° 0 mm 2 mps 713 mmHg 74%
    21:00 +12°C° 0 mm 2 mps 713 mmHg 79%
    22:00 +10°C° 0 mm 1 mps 713 mmHg 85%
    23:00 +10°C° 0 mm 1 mps 713 mmHg 86%

    31 May, Sunday

    Time Temperature Precipitation Wind Pressure Humidity
    00:00 +9°C° 0 mm 1 mps 713 mmHg 87%
    01:00 +9°C° 0 mm 1 mps 713 mmHg 88%
    02:00 +8°C° 0 mm 1 mps 712 mmHg 90%
    03:00 +8°C° 0 mm 1 mps 712 mmHg 91%
    04:00 +7°C° 0 mm 1 mps 712 mmHg 93%
    05:00 +9°C° 0 mm 1 mps 712 mmHg 87%
    06:00 +10°C° 0 mm 1 mps 712 mmHg 82%
    07:00 +12°C° 0 mm 1 mps 713 mmHg 77%
    08:00 +13°C° 0 mm 1 mps 713 mmHg 70%
    09:00 +15°C° 0 mm 2 mps 713 mmHg 63%
    10:00 +17°C° 0 mm 2 mps 713 mmHg 57%
    11:00 +18°C° 0 mm 2 mps 712 mmHg 53%
    12:00 +19°C° 0 mm 2 mps 712 mmHg 50%
    13:00 +20°C° 0 mm 2 mps 712 mmHg 46%
    14:00 +19°C° 0 mm 2 mps 712 mmHg 48%
    15:00 +19°C° 0 mm 3 mps 712 mmHg 50%
    16:00 +19°C° 0 mm 3 mps 712 mmHg 52%
    17:00 +18°C° 0.1 mm 2 mps 712 mmHg 60%
    18:00 +17°C° 0.1 mm 2 mps 711 mmHg 68%
    19:00 +16°C° 0.1 mm 2 mps 711 mmHg 76%
    20:00 +14°C° 0 mm 2 mps 711 mmHg 81%
    21:00 +12°C° 0 mm 1 mps 711 mmHg 86%
    22:00 +10°C° 0 mm 1 mps 711 mmHg 90%
    23:00 +10°C° 0 mm 1 mps 711 mmHg 90%
    Show more